| time (UTC) | temp F | wind direction | speed MPH | gust MPH | rain 1hr in | rain 24hr in | rain mn in | humidity % | barometer mb |
| 20260506091051 | 55 | 339 | 0.0 | 0.0 | 0.00 | 0.00 | 0.00 | 85 | 1007.9 |
| 20260506090549 | 55 | 339 | 0.0 | 0.0 | 0.00 | 0.00 | 0.00 | 81 | 1007.9 |
| 20260506090044 | 56 | 340 | 0.0 | 0.0 | 0.00 | 0.00 | 0.00 | 80 | 1007.8 |
| 20260506085542 | 56 | 343 | 0.0 | 0.0 | 0.00 | 0.00 | 0.00 | 78 | 1007.7 |
| 20260506085038 | 56 | 344 | 0.0 | 0.0 | 0.00 | 0.00 | 0.00 | 78 | 1007.8 |
| 20260506084535 | 56 | 344 | 0.0 | 0.0 | 0.00 | 0.00 | 0.00 | 79 | 1008.0 |
| 20260506084031 | 56 | 344 | 0.0 | 0.0 | 0.00 | 0.00 | 0.00 | 78 | 1008.2 |
| 20260506083529 | 56 | 343 | 0.0 | 0.0 | 0.00 | 0.00 | 0.00 | 79 | 1008.2 |
| 20260506083026 | 57 | 349 | 0.0 | 0.0 | 0.00 | 0.00 | 0.00 | 78 | 1008.0 |
| 20260506082523 | 57 | 351 | 0.0 | 0.0 | 0.00 | 0.00 | 0.00 | 76 | 1008.2 |
| 20260506082018 | 58 | 351 | 0.0 | 0.0 | 0.00 | 0.00 | 0.00 | 72 | 1008.2 |
| 20260506081517 | 59 | 342 | 0.0 | 0.0 | 0.00 | 0.00 | 0.00 | 69 | 1008.3 |
| 20260506081014 | 60 | 315 | 1.0 | 2.0 | 0.00 | 0.00 | 0.00 | 64 | 1008.3 |
| 20260506080511 | 60 | 359 | 0.0 | 0.0 | 0.00 | 0.00 | 0.00 | 61 | 1008.3 |
| 20260506073455 | 60 | 343 | 0.0 | 1.0 | 0.00 | 0.00 | 0.00 | 61 | 1007.9 |
| 20260506072952 | 60 | 343 | 0.0 | 0.0 | 0.00 | 0.00 | 0.00 | 62 | 1008.0 |
| 20260506072449 | 61 | 347 | 0.0 | 0.0 | 0.00 | 0.00 | 0.00 | 62 | 1007.9 |
| 20260506071947 | 60 | 356 | 0.0 | 1.0 | 0.00 | 0.00 | 0.00 | 59 | 1008.1 |
| 20260506071444 | 61 | 309 | 1.0 | 1.0 | 0.00 | 0.00 | 0.00 | 60 | 1007.9 |
| 20260506070941 | 61 | 6 | 0.0 | 0.0 | 0.00 | 0.00 | 0.00 | 62 | 1008.0 |
| 20260506070438 | 61 | 55 | 1.0 | 2.0 | 0.00 | 0.00 | 0.00 | 60 | 1007.9 |
| 20260506062416 | 57 | 357 | 0.0 | 0.0 | 0.00 | 0.00 | 0.00 | 72 | 1008.4 |
| 20260506061911 | 55 | 350 | 0.0 | 0.0 | 0.00 | 0.00 | 0.00 | 78 | 1008.7 |
| 20260506061408 | 54 | 357 | 0.0 | 0.0 | 0.00 | 0.00 | 0.00 | 84 | 1008.6 |
| 20260506060906 | 54 | 3 | 1.0 | 1.0 | 0.00 | 0.00 | 0.00 | 86 | 1008.4 |
| 20260506060404 | 53 | 331 | 0.0 | 0.0 | 0.00 | 0.00 | 0.00 | 86 | 1008.9 |
| 20260506051336 | 52 | 13 | 0.0 | 0.0 | 0.00 | 0.00 | 0.00 | 86 | 1009.5 |
| 20260506050833 | 52 | 12 | 0.0 | 0.0 | 0.00 | 0.00 | 0.00 | 86 | 1009.4 |
| 20260506050330 | 53 | 12 | 0.0 | 0.0 | 0.00 | 0.00 | 0.00 | 86 | 1009.5 |
| 20260506044821 | 53 | 11 | 0.0 | 0.0 | 0.00 | 0.00 | 0.00 | 86 | 1009.5 |
| 20260506044319 | 53 | 11 | 0.0 | 0.0 | 0.00 | 0.00 | 0.00 | 86 | 1009.5 |
| 20260506043816 | 53 | 11 | 0.0 | 0.0 | 0.00 | 0.00 | 0.00 | 86 | 1009.5 |
| 20260506043313 | 53 | 11 | 0.0 | 0.0 | 0.00 | 0.00 | 0.00 | 85 | 1009.4 |
| 20260506042812 | 53 | 11 | 0.0 | 0.0 | 0.00 | 0.00 | 0.00 | 85 | 1009.5 |
| 20260506042310 | 53 | 11 | 0.0 | 0.0 | 0.00 | 0.00 | 0.00 | 85 | 1009.2 |
| 20260506041809 | 54 | 11 | 0.0 | 0.0 | 0.00 | 0.00 | 0.00 | 84 | 1009.5 |
| 20260506041305 | 54 | 11 | 0.0 | 0.0 | 0.00 | 0.00 | 0.00 | 84 | 1009.3 |
| 20260506040802 | 54 | 11 | 0.0 | 0.0 | 0.00 | 0.00 | 0.00 | 83 | 1009.5 |
| 20260506040259 | 54 | 10 | 0.0 | 0.0 | 0.00 | 0.00 | 0.00 | 84 | 1009.4 |
| 20260506035756 | 53 | 10 | 0.0 | 0.0 | 0.00 | 0.02 | 0.02 | 85 | 1009.6 |
| 20260506035253 | 53 | 10 | 0.0 | 0.0 | 0.00 | 0.02 | 0.02 | 85 | 1009.7 |
| 20260506034750 | 53 | 10 | 0.0 | 0.0 | 0.00 | 0.02 | 0.02 | 85 | 1009.7 |
| 20260506034247 | 54 | 10 | 0.0 | 0.0 | 0.00 | 0.02 | 0.02 | 84 | 1009.8 |
| 20260506033744 | 54 | 10 | 0.0 | 0.0 | 0.00 | 0.02 | 0.02 | 82 | 1009.6 |
| 20260506033241 | 54 | 10 | 0.0 | 0.0 | 0.00 | 0.02 | 0.02 | 83 | 1009.8 |
| 20260506032738 | 54 | 8 | 0.0 | 0.0 | 0.00 | 0.02 | 0.02 | 82 | 1009.7 |
| 20260506032235 | 54 | 8 | 0.0 | 0.0 | 0.00 | 0.02 | 0.02 | 82 | 1009.8 |
| 20260506031731 | 54 | 8 | 0.0 | 0.0 | 0.00 | 0.02 | 0.02 | 82 | 1009.7 |
| 20260506031229 | 54 | 8 | 0.0 | 0.0 | 0.00 | 0.02 | 0.02 | 82 | 1009.8 |
| 20260506030727 | 54 | 8 | 0.0 | 0.0 | 0.00 | 0.02 | 0.02 | 82 | 1009.8 |
| 20260506030225 | 54 | 8 | 0.0 | 0.0 | 0.00 | 0.02 | 0.02 | 82 | 1009.9 |
| 20260506025721 | 54 | 8 | 0.0 | 0.0 | 0.00 | 0.02 | 0.02 | 82 | 1009.7 |
| 20260506025217 | 55 | 8 | 0.0 | 0.0 | 0.00 | 0.02 | 0.02 | 81 | 1009.6 |
| 20260506024715 | 55 | 8 | 0.0 | 0.0 | 0.00 | 0.02 | 0.02 | 81 | 1009.8 |
| 20260506024211 | 56 | 8 | 0.0 | 0.0 | 0.00 | 0.02 | 0.02 | 80 | 1009.8 |
| 20260506023707 | 56 | 8 | 0.0 | 0.0 | 0.00 | 0.02 | 0.02 | 78 | 1009.8 |
| 20260506023205 | 57 | 8 | 0.0 | 0.0 | 0.00 | 0.02 | 0.02 | 77 | 1009.9 |
| 20260506022702 | 57 | 8 | 0.0 | 0.0 | 0.00 | 0.02 | 0.02 | 76 | 1010.0 |
| 20260506022159 | 58 | 8 | 0.0 | 0.0 | 0.00 | 0.02 | 0.02 | 76 | 1009.9 |
| 20260506021657 | 58 | 8 | 0.0 | 0.0 | 0.00 | 0.02 | 0.02 | 74 | 1009.9 |
| 20260506021154 | 59 | 8 | 0.0 | 0.0 | 0.00 | 0.02 | 0.02 | 74 | 1009.7 |
| 20260506020651 | 59 | 8 | 0.0 | 0.0 | 0.00 | 0.02 | 0.02 | 72 | 1009.7 |
| 20260506020148 | 60 | 8 | 0.0 | 0.0 | 0.00 | 0.02 | 0.02 | 71 | 1009.8 |
| 20260506015646 | 60 | 8 | 0.0 | 0.0 | 0.00 | 0.02 | 0.02 | 70 | 1009.7 |
| 20260506015143 | 61 | 0 | 0.0 | 0.0 | 0.00 | 0.02 | 0.02 | 69 | 1009.8 |
| 20260506014641 | 61 | 345 | 0.0 | 0.0 | 0.00 | 0.02 | 0.02 | 69 | 1009.7 |
| 20260506014136 | 61 | 15 | 0.0 | 0.0 | 0.00 | 0.02 | 0.02 | 68 | 1009.5 |
| 20260506013634 | 61 | 13 | 0.0 | 0.0 | 0.00 | 0.02 | 0.02 | 67 | 1009.7 |
| 20260506013131 | 61 | 331 | 1.0 | 1.0 | 0.00 | 0.02 | 0.02 | 67 | 1009.7 |
| 20260506012627 | 62 | 359 | 0.0 | 0.0 | 0.00 | 0.02 | 0.02 | 66 | 1009.7 |
| 20260506012124 | 62 | 344 | 0.0 | 0.0 | 0.00 | 0.02 | 0.02 | 66 | 1009.6 |
| 20260506011622 | 62 | 7 | 0.0 | 0.0 | 0.00 | 0.02 | 0.02 | 65 | 1009.5 |
| 20260506011117 | 62 | 356 | 0.0 | 1.0 | 0.00 | 0.02 | 0.02 | 64 | 1009.7 |
| 20260506010611 | 62 | 50 | 1.0 | 2.0 | 0.00 | 0.02 | 0.02 | 65 | 1009.4 |
| 20260506010107 | 62 | 8 | 0.0 | 1.0 | 0.00 | 0.02 | 0.02 | 67 | 1009.4 |
| 20260506005604 | 62 | 331 | 0.0 | 0.0 | 0.00 | 0.02 | 0.02 | 66 | 1009.3 |
| 20260506005100 | 62 | 10 | 0.0 | 0.0 | 0.00 | 0.02 | 0.02 | 66 | 1009.4 |
| 20260506004558 | 63 | 10 | 0.0 | 0.0 | 0.00 | 0.02 | 0.02 | 65 | 1009.3 |
| 20260506004055 | 63 | 11 | 0.0 | 0.0 | 0.00 | 0.02 | 0.02 | 64 | 1009.2 |
| 20260506003551 | 64 | 6 | 0.0 | 0.0 | 0.00 | 0.02 | 0.02 | 62 | 1009.3 |
| 20260506003048 | 64 | 12 | 0.0 | 1.0 | 0.00 | 0.02 | 0.02 | 60 | 1009.1 |
| 20260506002544 | 63 | 28 | 1.0 | 1.0 | 0.00 | 0.02 | 0.02 | 62 | 1009.1 |
| 20260506002040 | 63 | 326 | 0.0 | 0.0 | 0.00 | 0.02 | 0.02 | 64 | 1009.1 |
| 20260506001536 | 64 | 330 | 1.0 | 1.0 | 0.00 | 0.02 | 0.02 | 62 | 1009.1 |
| 20260506001034 | 64 | 345 | 0.0 | 0.0 | 0.00 | 0.02 | 0.02 | 61 | 1009.1 |
| 20260506000531 | 64 | 12 | 0.0 | 0.0 | 0.00 | 0.02 | 0.02 | 61 | 1009.0 |
| 20260506000028 | 65 | 358 | 0.0 | 0.0 | 0.00 | 0.02 | 0.02 | 60 | 1009.1 |
| 20260505235526 | 66 | 359 | 0.0 | 0.0 | 0.00 | 0.02 | 0.02 | 58 | 1009.1 |
| 20260505235022 | 66 | 355 | 0.0 | 1.0 | 0.00 | 0.02 | 0.02 | 58 | 1008.9 |
| 20260505234520 | 66 | 342 | 0.0 | 1.0 | 0.00 | 0.02 | 0.02 | 58 | 1009.0 |
| 20260505234016 | 67 | 353 | 0.0 | 0.0 | 0.00 | 0.02 | 0.02 | 57 | 1008.9 |
| 20260505233514 | 67 | 11 | 0.0 | 1.0 | 0.00 | 0.02 | 0.02 | 54 | 1008.9 |
| 20260505233011 | 67 | 353 | 0.0 | 1.0 | 0.00 | 0.02 | 0.02 | 56 | 1009.0 |
| 20260505232509 | 68 | 42 | 2.0 | 4.0 | 0.00 | 0.02 | 0.02 | 55 | 1009.1 |
| 20260505232006 | 68 | 14 | 0.0 | 0.0 | 0.00 | 0.02 | 0.02 | 55 | 1008.7 |
| 20260505231503 | 68 | 328 | 1.0 | 1.0 | 0.00 | 0.02 | 0.02 | 54 | 1008.7 |
| 20260505231002 | 69 | 68 | 2.0 | 3.0 | 0.00 | 0.02 | 0.02 | 53 | 1008.7 |
| 20260505230459 | 69 | 316 | 3.0 | 3.0 | 0.00 | 0.02 | 0.02 | 51 | 1008.6 |
| 20260505225955 | 69 | 329 | 0.0 | 1.0 | 0.00 | 0.02 | 0.02 | 53 | 1008.6 |
| 20260505225452 | 70 | 323 | 2.0 | 3.0 | 0.00 | 0.02 | 0.02 | 51 | 1008.6 |
| 20260505224948 | 70 | 244 | 3.0 | 4.0 | 0.00 | 0.02 | 0.02 | 50 | 1008.6 |
| 20260505224445 | 70 | 269 | 2.0 | 2.0 | 0.00 | 0.02 | 0.02 | 51 | 1008.3 |
| 20260505223942 | 70 | 312 | 2.0 | 3.0 | 0.00 | 0.02 | 0.02 | 50 | 1008.7 |
| 20260505223439 | 71 | 310 | 2.0 | 3.0 | 0.00 | 0.02 | 0.02 | 49 | 1008.7 |
| 20260505222935 | 70 | 340 | 2.0 | 3.0 | 0.00 | 0.02 | 0.02 | 48 | 1008.3 |
| 20260505222432 | 71 | 320 | 1.0 | 2.0 | 0.00 | 0.02 | 0.02 | 49 | 1008.2 |
| 20260505221928 | 71 | 336 | 1.0 | 2.0 | 0.00 | 0.02 | 0.02 | 47 | 1008.2 |
| 20260505221425 | 71 | 255 | 2.0 | 2.0 | 0.00 | 0.02 | 0.02 | 47 | 1008.1 |
| 20260505220922 | 71 | 249 | 4.0 | 6.0 | 0.00 | 0.02 | 0.02 | 47 | 1008.2 |
| 20260505220419 | 71 | 345 | 2.0 | 3.0 | 0.00 | 0.02 | 0.02 | 46 | 1008.2 |
| 20260505215917 | 71 | 324 | 1.0 | 1.0 | 0.00 | 0.02 | 0.02 | 49 | 1008.1 |
| 20260505215415 | 72 | 314 | 0.0 | 1.0 | 0.00 | 0.02 | 0.02 | 48 | 1007.9 |
| 20260505214912 | 71 | 305 | 3.0 | 3.0 | 0.00 | 0.02 | 0.02 | 48 | 1008.0 |
| 20260505214410 | 72 | 336 | 1.0 | 2.0 | 0.00 | 0.02 | 0.02 | 47 | 1007.8 |
| 20260505213907 | 71 | 339 | 2.0 | 3.0 | 0.00 | 0.02 | 0.02 | 46 | 1008.1 |
| 20260505213405 | 72 | 271 | 4.0 | 6.0 | 0.00 | 0.02 | 0.02 | 45 | 1008.0 |
| 20260505212901 | 72 | 327 | 3.0 | 4.0 | 0.00 | 0.02 | 0.02 | 47 | 1008.1 |
| 20260505212358 | 72 | 206 | 4.0 | 4.0 | 0.00 | 0.02 | 0.02 | 45 | 1007.9 |
| 20260505211854 | 72 | 326 | 4.0 | 4.0 | 0.00 | 0.02 | 0.02 | 45 | 1007.9 |
| 20260505211351 | 72 | 61 | 6.0 | 9.0 | 0.00 | 0.02 | 0.02 | 45 | 1008.0 |
| 20260505210848 | 72 | 334 | 2.0 | 2.0 | 0.00 | 0.02 | 0.02 | 47 | 1007.7 |
| 20260505210345 | 72 | 289 | 1.0 | 2.0 | 0.00 | 0.02 | 0.02 | 46 | 1007.7 |
| 20260505205841 | 73 | 298 | 5.0 | 6.0 | 0.00 | 0.02 | 0.02 | 47 | 1007.7 |
| 20260505205340 | 73 | 329 | 1.0 | 1.0 | 0.00 | 0.02 | 0.02 | 47 | 1007.7 |
| 20260505204837 | 73 | 341 | 2.0 | 2.0 | 0.00 | 0.02 | 0.02 | 47 | 1007.6 |
| 20260505204334 | 74 | 271 | 3.0 | 4.0 | 0.00 | 0.02 | 0.02 | 47 | 1007.7 |
| 20260505203831 | 75 | 333 | 5.0 | 7.0 | 0.00 | 0.02 | 0.02 | 45 | 1007.6 |
| 20260505203328 | 75 | 11 | 3.0 | 4.0 | 0.00 | 0.02 | 0.02 | 46 | 1007.6 |
| 20260505202824 | 73 | 319 | 2.0 | 2.0 | 0.00 | 0.02 | 0.02 | 48 | 1007.6 |
| 20260505202320 | 73 | 322 | 3.0 | 4.0 | 0.00 | 0.02 | 0.02 | 47 | 1007.6 |
| 20260505201817 | 73 | 27 | 2.0 | 2.0 | 0.00 | 0.02 | 0.02 | 48 | 1007.7 |
| 20260505201315 | 73 | 218 | 3.0 | 4.0 | 0.00 | 0.02 | 0.02 | 47 | 1007.7 |
| 20260505200813 | 73 | 314 | 2.0 | 3.0 | 0.00 | 0.02 | 0.02 | 47 | 1007.8 |
| 20260505200309 | 73 | 334 | 5.0 | 7.0 | 0.00 | 0.02 | 0.02 | 47 | 1007.3 |
| 20260505195804 | 73 | 254 | 4.0 | 7.0 | 0.00 | 0.02 | 0.02 | 47 | 1007.6 |
| 20260505195305 | 73 | 279 | 4.0 | 6.0 | 0.00 | 0.02 | 0.02 | 48 | 1007.6 |
| 20260505194759 | 73 | 172 | 3.0 | 4.0 | 0.00 | 0.02 | 0.02 | 48 | 1007.6 |
| 20260505194256 | 73 | 13 | 3.0 | 6.0 | 0.00 | 0.02 | 0.02 | 46 | 1007.4 |
| 20260505193751 | 72 | 332 | 2.0 | 3.0 | 0.00 | 0.02 | 0.02 | 48 | 1007.7 |
| 20260505193249 | 73 | 352 | 4.0 | 6.0 | 0.00 | 0.02 | 0.02 | 47 | 1007.4 |
| 20260505192747 | 73 | 175 | 3.0 | 6.0 | 0.00 | 0.02 | 0.02 | 47 | 1007.4 |
| 20260505192245 | 73 | 69 | 3.0 | 4.0 | 0.00 | 0.02 | 0.02 | 47 | 1007.5 |
| 20260505191742 | 73 | 126 | 7.0 | 9.0 | 0.00 | 0.02 | 0.02 | 46 | 1007.5 |
| 20260505191241 | 74 | 183 | 4.0 | 8.0 | 0.00 | 0.02 | 0.02 | 47 | 1007.1 |
| 20260505190737 | 74 | 118 | 7.0 | 9.0 | 0.00 | 0.02 | 0.02 | 45 | 1007.5 |
| 20260505190231 | 76 | 312 | 2.0 | 3.0 | 0.00 | 0.02 | 0.02 | 45 | 1007.4 |
| 20260505185728 | 74 | 315 | 3.0 | 4.0 | 0.00 | 0.02 | 0.02 | 47 | 1007.4 |
| 20260505185224 | 74 | 328 | 7.0 | 9.0 | 0.00 | 0.02 | 0.02 | 46 | 1007.6 |
| 20260505184720 | 74 | 302 | 5.0 | 8.0 | 0.00 | 0.02 | 0.02 | 46 | 1007.7 |
| 20260505184218 | 74 | 312 | 4.0 | 4.0 | 0.00 | 0.02 | 0.02 | 46 | 1007.9 |
| 20260505183714 | 75 | 300 | 2.0 | 2.0 | 0.00 | 0.02 | 0.02 | 45 | 1007.7 |
| 20260505183212 | 75 | 279 | 9.0 | 11.0 | 0.00 | 0.02 | 0.02 | 43 | 1008.2 |
| 20260505182707 | 75 | 15 | 2.0 | 2.0 | 0.00 | 0.02 | 0.02 | 43 | 1008.0 |
| 20260505182205 | 74 | 54 | 2.0 | 2.0 | 0.00 | 0.02 | 0.02 | 45 | 1008.1 |
| 20260505181701 | 73 | 344 | 1.0 | 2.0 | 0.00 | 0.02 | 0.02 | 46 | 1008.2 |
| 20260505181159 | 73 | 281 | 4.0 | 6.0 | 0.00 | 0.02 | 0.02 | 49 | 1008.3 |
| 20260505180655 | 73 | 322 | 3.0 | 3.0 | 0.00 | 0.02 | 0.02 | 48 | 1008.3 |
| 20260505180153 | 72 | 347 | 4.0 | 4.0 | 0.00 | 0.02 | 0.02 | 49 | 1008.3 |
| 20260505175648 | 74 | 257 | 13.0 | 17.0 | 0.00 | 0.02 | 0.02 | 46 | 1008.2 |
| 20260505175145 | 73 | 344 | 1.0 | 1.0 | 0.00 | 0.02 | 0.02 | 48 | 1008.3 |
| 20260505174642 | 73 | 338 | 6.0 | 8.0 | 0.00 | 0.02 | 0.02 | 48 | 1008.7 |
| 20260505174137 | 74 | 262 | 4.0 | 6.0 | 0.00 | 0.02 | 0.02 | 48 | 1008.4 |
| 20260505173634 | 73 | 286 | 9.0 | 11.0 | 0.00 | 0.02 | 0.02 | 47 | 1008.7 |
| 20260505173131 | 73 | 294 | 3.0 | 4.0 | 0.00 | 0.02 | 0.02 | 49 | 1008.7 |
| 20260505172629 | 73 | 51 | 4.0 | 9.0 | 0.00 | 0.02 | 0.02 | 47 | 1008.6 |
| 20260505172126 | 73 | 28 | 6.0 | 14.0 | 0.00 | 0.02 | 0.02 | 48 | 1008.7 |
| 20260505171620 | 74 | 267 | 6.0 | 8.0 | 0.00 | 0.02 | 0.02 | 49 | 1008.7 |
| 20260505171118 | 74 | 280 | 5.0 | 7.0 | 0.00 | 0.02 | 0.02 | 48 | 1008.6 |
| 20260505170614 | 74 | 320 | 6.0 | 11.0 | 0.00 | 0.02 | 0.02 | 49 | 1008.2 |
| 20260505170111 | 72 | 358 | 2.0 | 3.0 | 0.00 | 0.02 | 0.02 | 50 | 1008.1 |
| 20260505165606 | 72 | 266 | 10.0 | 13.0 | 0.00 | 0.02 | 0.02 | 50 | 1008.2 |
| 20260505165102 | 73 | 86 | 2.0 | 3.0 | 0.00 | 0.02 | 0.02 | 50 | 1008.6 |
| 20260505164558 | 73 | 274 | 3.0 | 3.0 | 0.00 | 0.02 | 0.02 | 50 | 1008.8 |
| 20260505164055 | 73 | 307 | 4.0 | 6.0 | 0.00 | 0.02 | 0.02 | 51 | 1009.0 |
| 20260505163554 | 73 | 273 | 5.0 | 7.0 | 0.00 | 0.02 | 0.02 | 51 | 1008.7 |
| 20260505163051 | 73 | 260 | 4.0 | 4.0 | 0.00 | 0.02 | 0.02 | 51 | 1009.0 |
| 20260505162544 | 72 | 256 | 5.0 | 7.0 | 0.00 | 0.02 | 0.02 | 54 | 1009.1 |
| 20260505162041 | 73 | 300 | 8.0 | 10.0 | 0.00 | 0.02 | 0.02 | 52 | 1009.2 |
| 20260505161537 | 72 | 330 | 1.0 | 2.0 | 0.00 | 0.02 | 0.02 | 53 | 1009.4 |
| 20260505161035 | 72 | 246 | 3.0 | 4.0 | 0.00 | 0.02 | 0.02 | 52 | 1009.5 |
| 20260505160533 | 72 | 231 | 7.0 | 9.0 | 0.00 | 0.02 | 0.02 | 51 | 1009.2 |
| 20260505153009 | 70 | 194 | 6.0 | 8.0 | 0.00 | 0.02 | 0.02 | 54 | 1009.6 |
| 20260505152506 | 71 | 187 | 6.0 | 9.0 | 0.00 | 0.02 | 0.02 | 52 | 1009.5 |
| 20260505152001 | 71 | 13 | 5.0 | 6.0 | 0.00 | 0.02 | 0.02 | 55 | 1009.5 |
| 20260505151451 | 71 | 278 | 3.0 | 4.0 | 0.00 | 0.02 | 0.02 | 55 | 1009.7 |
| 20260505150948 | 71 | 349 | 2.0 | 3.0 | 0.00 | 0.02 | 0.02 | 54 | 1009.5 |
| 20260505150440 | 70 | 277 | 4.0 | 6.0 | 0.00 | 0.02 | 0.02 | 56 | 1009.6 |
| 20260505140410 | 67 | 100 | 3.0 | 3.0 | 0.00 | 0.02 | 0.02 | 60 | 1009.3 |
| 20260505124823 | 59 | 248 | 2.0 | 4.0 | 0.00 | 0.00 | 0.00 | 76 | 1010.7 |
| 20260505124320 | 63 | 279 | 4.0 | 6.0 | 0.00 | 0.00 | 0.00 | 66 | 1010.7 |
| 20260505123816 | 65 | 325 | 3.0 | 3.0 | 0.00 | 0.00 | 0.00 | 59 | 1010.3 |
| 20260505123313 | 65 | 350 | 2.0 | 3.0 | 0.00 | 0.00 | 0.00 | 58 | 1010.2 |
| 20260505122809 | 64 | 288 | 3.0 | 4.0 | 0.00 | 0.00 | 0.00 | 59 | 1009.9 |
| 20260505122307 | 64 | 302 | 4.0 | 4.0 | 0.00 | 0.00 | 0.00 | 58 | 1009.7 |
| 20260505121803 | 64 | 2 | 0.0 | 1.0 | 0.00 | 0.00 | 0.00 | 59 | 1009.7 |
| 20260505121300 | 64 | 353 | 1.0 | 2.0 | 0.00 | 0.00 | 0.00 | 60 | 1009.8 |
| 20260505120756 | 65 | 311 | 2.0 | 3.0 | 0.00 | 0.00 | 0.00 | 59 | 1009.9 |
| 20260505120253 | 64 | 26 | 3.0 | 4.0 | 0.00 | 0.00 | 0.00 | 58 | 1009.7 |
| 20260505115751 | 62 | 11 | 1.0 | 2.0 | 0.00 | 0.00 | 0.00 | 61 | 1009.6 |
| 20260505115249 | 61 | 335 | 1.0 | 1.0 | 0.00 | 0.00 | 0.00 | 67 | 1009.6 |
| 20260505114746 | 61 | 347 | 1.0 | 2.0 | 0.00 | 0.00 | 0.00 | 65 | 1009.6 |
| 20260505114242 | 60 | 352 | 0.0 | 0.0 | 0.00 | 0.00 | 0.00 | 66 | 1009.6 |
| 20260505113739 | 60 | 287 | 1.0 | 1.0 | 0.00 | 0.00 | 0.00 | 66 | 1009.7 |
| 20260505113235 | 60 | 344 | 2.0 | 3.0 | 0.00 | 0.00 | 0.00 | 67 | 1009.7 |
| 20260505112731 | 59 | 16 | 0.0 | 1.0 | 0.00 | 0.00 | 0.00 | 67 | 1009.8 |
| 20260505112229 | 59 | 336 | 3.0 | 4.0 | 0.00 | 0.00 | 0.00 | 69 | 1009.7 |
| 20260505111729 | 58 | 346 | 1.0 | 1.0 | 0.00 | 0.00 | 0.00 | 70 | 1009.7 |
| 20260505111225 | 58 | 349 | 1.0 | 1.0 | 0.00 | 0.00 | 0.00 | 70 | 1009.6 |
| 20260505110721 | 58 | 299 | 2.0 | 3.0 | 0.00 | 0.00 | 0.00 | 71 | 1009.4 |
| 20260505110219 | 57 | 8 | 0.0 | 1.0 | 0.00 | 0.00 | 0.00 | 71 | 1009.5 |
| 20260505102154 | 55 | 32 | 1.0 | 1.0 | 0.00 | 0.00 | 0.00 | 74 | 1009.2 |
| 20260505101653 | 54 | 338 | 1.0 | 1.0 | 0.00 | 0.00 | 0.00 | 76 | 1009.1 |
| 20260505101149 | 54 | 340 | 0.0 | 0.0 | 0.00 | 0.00 | 0.00 | 77 | 1009.0 |
| 20260505100645 | 54 | 347 | 0.0 | 0.0 | 0.00 | 0.00 | 0.00 | 76 | 1008.8 |
| 20260505100143 | 54 | 348 | 0.0 | 0.0 | 0.00 | 0.00 | 0.00 | 76 | 1008.9 |
| 20260505095638 | 53 | 345 | 1.0 | 2.0 | 0.00 | 0.00 | 0.00 | 77 | 1008.9 |
| 20260505095136 | 54 | 9 | 0.0 | 0.0 | 0.00 | 0.00 | 0.00 | 76 | 1009.2 |
| 20260505094631 | 54 | 301 | 2.0 | 2.0 | 0.00 | 0.00 | 0.00 | 76 | 1008.9 |
| 20260505094128 | 53 | 29 | 1.0 | 1.0 | 0.00 | 0.00 | 0.00 | 77 | 1009.0 |
| 20260505093624 | 53 | 350 | 0.0 | 0.0 | 0.00 | 0.00 | 0.00 | 76 | 1008.9 |
| 20260505093122 | 54 | 4 | 0.0 | 0.0 | 0.00 | 0.00 | 0.00 | 76 | 1008.8 |
| 20260505092619 | 55 | 357 | 0.0 | 0.0 | 0.00 | 0.00 | 0.00 | 75 | 1008.8 |
| 20260505092118 | 55 | 359 | 0.0 | 0.0 | 0.00 | 0.00 | 0.00 | 73 | 1008.7 |
| 20260505091614 | 56 | 345 | 0.0 | 0.0 | 0.00 | 0.00 | 0.00 | 72 | 1008.9 |